2023/01/31 00:00:00,113.2,-0.6
2023/01/31 00:10:00,113.1,-0.6
2023/01/31 00:20:00,113.0,-0.6
2023/01/31 00:30:00,112.8,-0.7
2023/01/31 00:40:00,112.7,-0.4
2023/01/31 00:50:00,113.0,-0.7
2023/01/31 01:00:00,113.0,-0.4
2023/01/31 01:10:00,112.9,-0.8
2023/01/31 01:20:00,112.7,-0.3
2023/01/31 01:30:00,112.6,-0.7
2023/01/31 01:40:00,112.4,-0.6
2023/01/31 01:50:00,112.3,-0.6
2023/01/31 02:00:00,112.3,-0.8
2023/01/31 02:10:00,112.3,-0.7
2023/01/31 02:20:00,112.3,-0.7
2023/01/31 02:30:00,112.2,-0.7
2023/01/31 02:40:00,112.1,-0.7
2023/01/31 02:50:00,112.0,-0.8
2023/01/31 03:00:00,111.8,-0.9
2023/01/31 03:10:00,111.6,-0.9
2023/01/31 03:20:00,111.5,-0.8
2023/01/31 03:30:00,111.5,-0.7
2023/01/31 03:40:00,111.5,-0.8
2023/01/31 03:50:00,111.6,-1.2
2023/01/31 04:00:00,111.6,-1.2
2023/01/31 04:10:00,111.6,-1.3
2023/01/31 04:20:00,111.5,-1.4
2023/01/31 04:30:00,111.4,-1.2
2023/01/31 04:40:00,111.2,-1.1
2023/01/31 04:50:00,111.2,-1.1
2023/01/31 05:00:00,111.1,-1.3
2023/01/31 05:10:00,110.9,-1.3
2023/01/31 05:20:00,110.8,-1.1
2023/01/31 05:30:00,110.8,-0.9
2023/01/31 05:40:00,110.7,-1.2
2023/01/31 05:50:00,110.7,-1.2
2023/01/31 06:00:00,110.7,-1.3
2023/01/31 06:10:00,110.6,-1.4
2023/01/31 06:20:00,110.5,-1.4
2023/01/31 06:30:00,110.5,-1.5
2023/01/31 06:40:00,110.5,-1.5
2023/01/31 06:50:00,110.5,-1.4
2023/01/31 07:00:00,110.6,-1.5
2023/01/31 07:10:00,110.5,-1.2
2023/01/31 07:20:00,110.5,-1.3
2023/01/31 07:30:00,110.4,-1.2
2023/01/31 07:40:00,110.5,-1.2
2023/01/31 07:50:00,110.5,-0.7
2023/01/31 08:00:00,110.4,-0.9
2023/01/31 08:10:00,110.3,-0.7
2023/01/31 08:20:00,110.3,-0.4
2023/01/31 08:30:00,110.2, 0.1
2023/01/31 08:40:00,110.2, 0.3
2023/01/31 08:50:00,110.1, 0.6
2023/01/31 09:00:00,109.9,-0.1
2023/01/31 09:10:00,110.1, 1.9
2023/01/31 09:20:00,110.1, 3.9
2023/01/31 09:30:00,110.4, 4.4
2023/01/31 09:40:00,110.6, 5.3
2023/01/31 09:50:00,110.8, 7.2
2023/01/31 10:00:00,110.6, 6.1
2023/01/31 10:10:00,110.3, 4.8
2023/01/31 10:20:00,110.3, 5.8
2023/01/31 10:30:00,110.3, 6.3
2023/01/31 10:40:00,110.3, 7.2
2023/01/31 10:50:00,110.2, 7.9
2023/01/31 11:00:00,109.9, 9.4
2023/01/31 11:10:00,109.8,10.0
2023/01/31 11:20:00,109.5, 9.4
2023/01/31 11:30:00,108.9,10.3
2023/01/31 11:40:00,108.3,10.7
2023/01/31 11:50:00,107.9, 9.1
2023/01/31 12:00:00,107.3,10.8
2023/01/31 12:10:00,106.7,11.4
2023/01/31 12:20:00,106.1,13.5
2023/01/31 12:30:00,105.3,12.1
2023/01/31 12:40:00,104.5,12.7
2023/01/31 12:50:00,104.0,13.0
2023/01/31 13:00:00,102.8,13.7
2023/01/31 13:10:00,102.1, 7.6
2023/01/31 13:20:00,101.7, 7.2
2023/01/31 13:30:00,101.2, 6.0
2023/01/31 13:40:00,100.5,12.3
2023/01/31 13:50:00,100.5,16.6
2023/01/31 14:00:00,100.5,16.4
2023/01/31 14:10:00,100.5,13.6
2023/01/31 14:20:00,100.5,16.4
2023/01/31 14:30:00,100.2,15.0
2023/01/31 14:40:00,99.0,15.5
2023/01/31 14:50:00,98.1,12.1
2023/01/31 15:00:00,98.0, 7.9
2023/01/31 15:10:00,98.1, 9.1
2023/01/31 15:20:00,97.7, 4.2
2023/01/31 15:30:00,97.4, 3.2
2023/01/31 15:40:00,97.2, 3.4
2023/01/31 15:50:00,97.1, 2.8
2023/01/31 16:00:00,97.1, 2.0
2023/01/31 16:10:00,97.2, 1.4
2023/01/31 16:20:00,96.9, 1.1
2023/01/31 16:30:00,96.9, 0.6
2023/01/31 16:40:00,97.0, 0.3
2023/01/31 16:50:00,97.0, 0.1
2023/01/31 17:00:00,96.9,-0.1
2023/01/31 17:10:00,97.0,-0.5
2023/01/31 17:20:00,97.1,-0.6
2023/01/31 17:30:00,96.9,-0.6
2023/01/31 17:40:00,96.8,-0.8
2023/01/31 17:50:00,96.8,-0.7
2023/01/31 18:00:00,97.0,-0.9
2023/01/31 18:10:00,97.1,-0.6
2023/01/31 18:20:00,97.1,-0.6
2023/01/31 18:30:00,96.8,-0.6
2023/01/31 18:40:00,96.4,-0.7
2023/01/31 18:50:00,96.4,-0.6
2023/01/31 19:00:00,96.6,-0.7
2023/01/31 19:10:00,96.6,-0.7
2023/01/31 19:20:00,96.3,-1.1
2023/01/31 19:30:00,96.0,-0.7
2023/01/31 19:40:00,95.9,-0.9
2023/01/31 19:50:00,95.9,-0.8
2023/01/31 20:00:00,95.8,-0.9
2023/01/31 20:10:00,95.7,-1.1
2023/01/31 20:20:00,95.6,-1.2
2023/01/31 20:30:00,95.6,-1.5
2023/01/31 20:40:00,95.6,-1.5
2023/01/31 20:50:00,95.5,-1.6
2023/01/31 21:00:00,95.4,-1.1
2023/01/31 21:10:00,95.4,-1.2
2023/01/31 21:20:00,95.4,-1.3
2023/01/31 21:30:00,95.4,-0.7
2023/01/31 21:40:00,95.3,-0.8
2023/01/31 21:50:00,95.2,-0.9
2023/01/31 22:00:00,95.2,-1.4
2023/01/31 22:10:00,95.1,-1.3
2023/01/31 22:20:00,95.0,-1.7
2023/01/31 22:30:00,94.9,-1.4
2023/01/31 22:40:00,94.8,-1.1
2023/01/31 22:50:00,94.7,-1.0
2023/01/31 23:00:00,94.7,-1.2
2023/01/31 23:10:00,94.7,-0.9
2023/01/31 23:20:00,94.6,-1.4
2023/01/31 23:30:00,94.6,-1.8
2023/01/31 23:40:00,94.6,-1.4
2023/01/31 23:50:00,94.6,-1.7
